Retour au catalogue

STARLINK-31899

ActifCommunicationsVLEO
NORAD 59850·PAYLOAD·🇺🇸 United States

Lancé May 23, 2024 depuis Cape Canaveral Space Force Station

Loading…

Prochains Passages (prochaines 24 heures)

TLE

FraisSource: CelesTrak SupGP

Époque: Sep 15, 2026, 02:44 UTC

1 59850C 24097R   26258.11437500  .00006376  00000+0  23093-3 0  2582
2 59850  43.0003 284.5255 0001441 263.9814 239.2812 15.27578259    12

Suivez STARLINK-31899 en temps réel avec AllMySat

Download on the App Store